Showing default

NOAA 5, 9057

Orbit data source: Space-Track

NOAA 5, 9057 is a payload satellite owned by NOAA (US) in SSO that was launched on Thu, 29 Jul 1976 UTC via a DELTA 2310 launch vehicle from the Air Force Western Test Range (AFWTR). Payload-class satellites include a variety of spacecraft equipped with specific instruments for various scientific and technological missions. These include communications satellites like Starlink; space stations such as the ISS; scientific satellites like the Hubble; Earth observation satellites from companies like Planet Labs, Umbra, and HawkEye 360; GPS; miniature CubeSats for education and research; and military/defense satellites.

Loading next visibility...
Identifier
9057, 1976-077A
Orbit
SSO
Country
Flag of USUS
Related business
Manufacturer
RCA/East Windsor
Mission
Non-operational spacecraft
Bus & Motor
TIROS M, Unknown motor
Mass
340 kg wet, 340 kg dry
Launch date (UTC)
1976-07-29 (50 years ago)
Launch vehicle
DELTA 2310
Launch site
Air Force Western Test Range (AFWTR)
Object type
Payload
Rocket body
Debris
Shape & HBR
BOX + 2 PAN, 1.1 m
Radar Cross Section
Large (>1 m²)

Expand to show TLE details & history
Last TLE update: 10 hours ago

TLE from 10 hours ago
0 NOAA 5
1 09057U 76077A   26265.74187343 -.00000018  00000-0  21991-3 0  9991
2 09057 102.3145 252.4390 0009724 159.7459  13.4491 12.37834535266542
Epoch: 2026-09-22T17:48Z
TLE epoch observation values (Epoch: 2026-09-22T17:48:17.864Z)
Latitude
6.55552°
Longitude
165.19205°
Altitude
1,510.255 km
Speed
7.114 km/s
True Right ascension
04h 55m 28s
True Declination
6° 31' 13"
Sunlit
Object was in daylight at epoch
Visualization orbit readout
Latitude
Unknown
Longitude
Unknown
Altitude
Unknown
Speed
Unknown
Apparent Right ascension
Unknown
Apparent Declination
Unknown
Sunlit
N/A
Visualization observer readout
Local Sidereal Time
20:29:50
Azimuth
Unknown
Elevation
Unknown
Doppler factor
Unknown
Orbital elements
Apogee altitude
1,521.066 km
Perigee altitude
1,505.719 km
Semi-major axis
7,891.53 km
Eccentricity
0.00097
Inclination
102.3145°
RAAN
252.439°
Arg. of periapsis
159.7459°
True anomaly
13.47505°
Mean anomaly
13.4491°
Eccentric anomaly
13.46207°
Mean motion
3.096 °/min
Orbital period
116.28 mins
BSTAR
0.00021991
Loading maneuver chart data...
Computing Atmospheric mass density...
Loading historical data...
Loading historical data...
Loading historical data...
Loading historical data...
Loading historical data...
Loading historical data...
Loading historical data...

Documentation

Showing up to 5 results
|